This is the latest recevied weather packets stored in our database for station/object IZ0VWB-3. If no packets are shown the sender has not sent any weather packets the latest 1 day(s).
| Time | Temp. | Humidity | Pressure | Rain* | Wind** | Luminosity | Snow |
|---|---|---|---|---|---|---|---|
| 1778016792 | 14.44° C | 84% | 1001.8 hPa | 0 mm | 0.89 m/s, 120° | - | - |
| 1778016193 | 14.44° C | 84% | 1001.8 hPa | 0 mm | 0.45 m/s, 123° | - | - |
| 1778015592 | 15° C | 84% | 1001.9 hPa | 0 mm | 0.45 m/s, 123° | - | - |
| 1778014992 | 15° C | 84% | 1001.9 hPa | 0 mm | 0.45 m/s, 144° | - | - |
| 1778014393 | 15° C | 84% | 1001.9 hPa | 0 mm | 0.89 m/s, 125° | - | - |
| 1778013792 | 15° C | 83% | 1002 hPa | 0 mm | 0 m/s | - | - |
| 1778013192 | 15° C | 83% | 1002.2 hPa | 0 mm | 0 m/s | - | - |
| 1778013005 | 15° C | 84% | 1002.1 hPa | 0 mm | 0.89 m/s, 176° | - | - |
| 1778012760 | 15° C | 83% | 1002.2 hPa | 0 mm | 0.45 m/s, 165° | - | - |
| 1778012158 | 15° C | 84% | 1002.2 hPa | 0 mm | 0.45 m/s, 137° | - | - |
| 1778011557 | 15° C | 84% | 1002 hPa | 0 mm | 0 m/s | - | - |
| 1778010959 | 15° C | 84% | 1002.1 hPa | 0 mm | 0 m/s | - | - |
| 1778010357 | 15° C | 84% | 1002 hPa | 0 mm | 0 m/s | - | - |
| 1778009758 | 15° C | 84% | 1001.8 hPa | 0 mm | 0 m/s | - | - |
| 1778009157 | 15° C | 83% | 1001.8 hPa | 0 mm | 0 m/s | - | - |
| 1778008557 | 15° C | 83% | 1001.6 hPa | 0 mm | 0.45 m/s, 138° | - | - |
| 1778007958 | 15° C | 83% | 1001.7 hPa | 0 mm | 0.89 m/s, 139° | - | - |
| 1778007357 | 15° C | 83% | 1001.7 hPa | 0 mm | 0.45 m/s, 131° | - | - |
| 1778006758 | 15° C | 83% | 1001.6 hPa | 0 mm | 0.89 m/s, 122° | - | - |
| 1778006158 | 15° C | 83% | 1001.6 hPa | 0 mm | 0.89 m/s, 120° | - | - |
| 1778005557 | 15° C | 83% | 1001.6 hPa | 0 mm | 0.89 m/s, 109° | - | - |
| 1778004676 | 15° C | 83% | 1001.4 hPa | 0 mm | 0.89 m/s, 115° | - | - |
| 1778004100 | 15° C | 83% | 1001.4 hPa | 0 mm | 0.89 m/s, 120° | - | - |
| 1778003721 | 15° C | 83% | 1001.3 hPa | 0 mm | 0.89 m/s, 132° | - | - |
| 1778003268 | 15° C | 83% | 1001.4 hPa | 0 mm | 1.34 m/s, 115° | - | - |
* Rain latest hour (hover to see other rain measurements)
** Current wind speed in m/s (hover to see current wind gust speed)